This is the latest recevied weather packets stored in our database for station/object KD8UTJ. If no packets are shown the sender has not sent any weather packets the latest 10 day(s).
| Time | Temp. | Humidity | Pressure | Rain* | Wind** | Luminosity | Snow |
|---|---|---|---|---|---|---|---|
| 1777984416 | 25° C | 71% | 1018.2 hPa | 0 mm | - | 232 W/m² | - |
| 1777984112 | 25° C | 72% | 1018.2 hPa | 0 mm | - | 214 W/m² | - |
| 1777983810 | 24.44° C | 74% | 1018.2 hPa | 0 mm | - | 203 W/m² | - |
| 1777983506 | 24.44° C | 73% | 1018.3 hPa | 0 mm | - | 181 W/m² | - |
| 1777983203 | 24.44° C | 73% | 1018.3 hPa | 0 mm | - | 165 W/m² | - |
| 1777982899 | 23.89° C | 73% | 1018.4 hPa | 0 mm | - | 154 W/m² | - |
| 1777982595 | 23.89° C | 74% | 1018.5 hPa | 0 mm | - | 143 W/m² | - |
| 1777982294 | 23.89° C | 74% | 1018.5 hPa | 0 mm | - | 124 W/m² | - |
| 1777981992 | 23.89° C | 75% | 1018 hPa | 0 mm | - | 105 W/m² | - |
| 1777981689 | 23.89° C | 75% | 1018.3 hPa | 0 mm | - | 96 W/m² | - |
| 1777981385 | 23.89° C | 75% | 1017.9 hPa | 0 mm | - | 82 W/m² | - |
| 1777981082 | 23.33° C | 76% | 1017.9 hPa | 0 mm | - | 73 W/m² | - |
| 1777980778 | 23.33° C | 77% | 1017.9 hPa | 0 mm | - | 63 W/m² | - |
| 1777980474 | 23.33° C | 78% | 1017.9 hPa | 0 mm | - | 53 W/m² | - |
| 1777980172 | 22.78° C | 80% | 1017.7 hPa | 0 mm | - | 44 W/m² | - |
| 1777979872 | 22.22° C | 81% | 1017.7 hPa | 0 mm | - | 37 W/m² | - |
| 1777979568 | 22.22° C | 81% | 1017.6 hPa | 0 mm | - | 29 W/m² | - |
| 1777979264 | 22.22° C | 82% | 1017.4 hPa | 0 mm | - | 24 W/m² | - |
| 1777978963 | 21.67° C | 83% | 1017.3 hPa | 0 mm | - | 19 W/m² | - |
| 1777978658 | 21.67° C | 83% | 1017.4 hPa | 0 mm | - | 15 W/m² | - |
| 1777978354 | 21.67° C | 84% | 1017.3 hPa | 0 mm | - | 11 W/m² | - |
| 1777978051 | 21.67° C | 84% | 1017.2 hPa | 0 mm | - | 7 W/m² | - |
| 1777977748 | 21.11° C | 84% | 1017.5 hPa | 0 mm | - | 4 W/m² | - |
| 1777977445 | 21.11° C | 85% | 1017.3 hPa | 0 mm | - | 2 W/m² | - |
| 1777977142 | 21.11° C | 85% | 1017.1 hPa | 0 mm | - | 1 W/m² | - |
* Rain latest hour (hover to see other rain measurements)
** Current wind speed in m/s (hover to see current wind gust speed)